[[{"header":{"parameterUnit":"m.s-1","parameterCategory":2,"la1":30.2992,"la2":30.254,"lo1":-89.0895,"lo2":-89.0443,"dy":0.0025,"dx":0.0025,"nx":19,"ny":19,"refTime":"2026-04-09T03:00:00:Z","depth":"0","parameterNumber":2,"parameterNumberName":"U-component_of_CURRENTS"},"data":[0,0,0,0.2795,0.2793,0.269,0.269,0.2645,0.2645,0,0,0,0,0,0,0,0,0,0,0,0.2838,0.2838,0.2795,0.2793,0.269,0.269,0.2645,0.2645,0,0,0,0,0,0,0,0,0,0,0,0.2838,0.2838,0.2838,0.2793,0.269,0.269,0.2645,0.2699,0,0,0,0,0,0,0,0,0,0,0.2787,0.2805,0.2838,0.2838,0.2792,0.2691,0.269,0.2701,0.2696,0.2718,0,0.2709,0,0.2678,0.2644,0.2644,0,0,0,0.2786,0.2809,0.2794,0.2837,0.2791,0.2691,0.2735,0.2697,0.2692,0.2712,0.2708,0.2705,0.2677,0.2644,0.2644,0.2681,0.2682,0,0,0.2791,0.2806,0.2798,0.2791,0.2775,0.2738,0.2732,0.2693,0.2687,0.2708,0.2703,0.2676,0.2644,0.2644,0.2681,0.2682,0,0,0,0.2813,0.281,0.2794,0.2794,0.2769,0.2735,0.2728,0.2688,0.2686,0.2703,0.2676,0.2644,0.2644,0.268,0.2681,0.2722,0,0,0,0.2816,0.2823,0.2797,0.2802,0.277,0.2712,0.2724,0.2689,0.2683,0.2676,0.2644,0.2644,0.268,0.2681,0.272,0.2734,0,0,0,0.2841,0.2825,0.2819,0.2804,0.2763,0.2711,0.2706,0.2686,0.2668,0.2644,0.2644,0.268,0.2681,0.2718,0.2731,0.2806,0,0,0,0.2851,0.2781,0.2819,0.275,0.2764,0.2717,0.2705,0.2662,0.2641,0.2644,0.268,0.2681,0.2717,0.2729,0.2803,0.2842,0.2858,0,0,0.2754,0.277,0.2731,0.2762,0.2713,0.273,0.271,0.2678,0.2672,0.2696,0.2696,0.2721,0.2731,0.2805,0.2904,0.2919,0,0,0,0.2695,0.2678,0.2668,0.2659,0.2657,0.2696,0.2677,0.2698,0.2715,0.2666,0.2731,0.2736,0.2782,0.28,0.2812,0.2878,0.2686,0.2686,0.2686,0.2579,0.2602,0.2565,0.2608,0.2621,0.2673,0.271,0.2748,0.2734,0.2763,0.2778,0.2871,0.289,0.2899,0.2967,0.2789,0.2789,0.2789,0.2789,0.2471,0.2453,0.2538,0.2512,0.2612,0.2639,0.2755,0.2782,0.2873,0.2833,0.2876,0.2851,0.2914,0.2982,0.2792,0.2792,0.2791,0.2791,0.2791,0.2401,0.2396,0.2414,0.2453,0.2527,0.2631,0.274,0.2829,0.2904,0.2954,0.2998,0.2997,0.3052,0.2986,0.2987,0.2987,0.2987,0.2988,0.2988,0.2315,0.2336,0.2338,0.2396,0.2438,0.2551,0.2733,0.284,0.3002,0.3052,0.3052,0.31,0.2932,0.2919,0.2994,0.2993,0.2992,0.2992,0.2991,0.2199,0.2241,0.2235,0.2264,0.2366,0.2431,0.2646,0.2898,0.304,0.313,0.326,0.3119,0.3117,0.3107,0.3099,0.3217,0.3217,0.3217,0.3217,0.2136,0.2153,0.2152,0.2176,0.225,0.2369,0.2519,0.2792,0.3156,0.3318,0.3391,0.3354,0.3342,0.335,0.3334,0.3329,0.3503,0.3504,0.3504,0.208,0.2099,0.2069,0.2105,0.2174,0.2288,0.2381,0.2631,0.3205,0.3521,0.3482,0.347,0.3416,0.3391,0.3397,0.337,0.3358,0,0]},{"header":{"parameterUnit":"m.s-1","parameterCategory":2,"la1":30.2992,"la2":30.254,"lo1":-89.0895,"lo2":-89.0443,"dy":0.0025,"dx":0.0025,"nx":19,"ny":19,"refTime":"2026-04-09T03:00:00:Z","depth":"0","parameterNumber":3,"parameterNumberName":"V-component_of_CURRENTS"},"data":[0,0,0,-0.0009,-0.0009,-0.0037,-0.0037,-0.0121,-0.0122,0,0,0,0,0,0,0,0,0,0,0,0.0006,0.0006,-0.0009,-0.0009,-0.0037,-0.0037,-0.0121,-0.0122,0,0,0,0,0,0,0,0,0,0,0,0.0005,0.0006,0.0006,-0.0009,-0.0037,-0.0037,-0.0121,-0.0091,0,0,0,0,0,0,0,0,0,0,-0.0059,-0.0033,0.0006,0.0006,-0.0009,-0.0037,-0.0038,-0.0089,-0.0093,-0.0119,0,-0.011,0,-0.0116,-0.0128,-0.0128,0,0,0,-0.0021,-0.0029,-0.0037,0.0006,-0.0009,-0.0037,-0.0028,-0.0091,-0.0095,-0.0124,-0.0111,-0.0114,-0.0117,-0.0128,-0.0129,-0.0141,-0.0141,0,0,-0.0019,-0.0005,-0.0034,-0.0039,-0.0001,-0.0027,-0.0029,-0.0093,-0.0092,-0.0111,-0.0116,-0.0119,-0.0129,-0.0129,-0.0142,-0.0141,0,0,0,-0.0007,-0.0004,-0.0009,-0.0036,-0.0036,-0.0027,-0.0029,-0.0089,-0.009,-0.0117,-0.012,-0.0129,-0.013,-0.0142,-0.0142,-0.0038,0,0,0,-0.0007,0.0004,-0.0008,-0.0001,-0.0034,-0.0056,-0.0024,-0.0085,-0.0093,-0.0119,-0.0129,-0.0131,-0.0143,-0.0142,-0.0042,0.0027,0,0,0,0.0004,0.0005,0.0007,-0.0,-0.0008,-0.0055,-0.006,-0.0087,-0.0095,-0.0128,-0.0131,-0.0143,-0.0142,-0.0046,0.002,0.0066,0,0,0,0.001,0.0053,0.0008,0.0048,-0.0007,0.0007,-0.0059,-0.0067,-0.0088,-0.013,-0.0143,-0.0142,-0.0047,0.0015,0.0062,0.017,0.0199,0,0,0.0074,0.006,0.0085,0.0044,0.0086,0.0009,0.0043,-0.0021,-0.0081,-0.0129,-0.0129,-0.0041,0.0019,0.0065,0.0237,0.0264,0,0,0,0.0111,0.0131,0.0135,0.0144,0.0127,0.0124,0.0054,0.0021,-0.0019,-0.0087,-0.0046,-0.0011,0.0014,0.007,0.0092,0.0,-0.0136,-0.0136,-0.0136,0.022,0.0205,0.0253,0.0238,0.0241,0.0195,0.0185,0.0125,0.0047,0.0046,0.0068,0.0171,0.0232,0.0249,0.0154,0.0049,0.005,0.005,0.005,0.0324,0.0351,0.0337,0.0372,0.0352,0.0362,0.0307,0.0254,0.0238,0.0158,0.0177,0.0171,0.0279,0.0168,0.0057,0.0056,0.0055,0.0054,0.0054,0.0385,0.0401,0.0409,0.0459,0.0495,0.0463,0.0524,0.0446,0.0348,0.0372,0.0401,0.04,0.0306,0.0371,0.0371,0.0372,0.0372,0.0372,0.0373,0.0443,0.0458,0.0509,0.0551,0.0597,0.0656,0.0645,0.065,0.061,0.0543,0.0542,0.0345,0.0269,0.026,0.0381,0.038,0.0378,0.0378,0.0377,0.0518,0.0517,0.0608,0.0658,0.0779,0.0919,0.0892,0.094,0.0895,0.0905,0.0619,0.0618,0.0596,0.0578,0.0576,0.0771,0.0771,0.0771,0.0771,0.0568,0.0574,0.0701,0.0808,0.0947,0.1042,0.1245,0.1256,0.1026,0.0882,0.0726,0.066,0.0648,0.0621,0.0603,0.0597,0.0794,0.0793,0.0793,0.0625,0.0658,0.076,0.0859,0.102,0.1205,0.1429,0.1552,0.1155,0.0777,0.0579,0.0579,0.0455,0.0444,0.0375,0.0356,0.0336,0,0]}],[{"header":{"parameterUnit":"m.s-1","parameterCategory":2,"la1":30.2992,"la2":30.254,"lo1":-89.0895,"lo2":-89.0443,"dy":0.0025,"dx":0.0025,"nx":19,"ny":19,"refTime":"2026-04-09T03:00:00:Z","depth":"2","parameterNumber":2,"parameterNumberName":"U-component_of_CURRENTS"},"data":[0,0,0,0.2331,0.2333,0.2399,0.2399,0.2441,0.2442,0,0,0,0,0,0,0,0,0,0,0,0.23,0.2301,0.2331,0.2333,0.2399,0.2399,0.2441,0.2442,0,0,0,0,0,0,0,0,0,0,0,0.23,0.2301,0.2301,0.2333,0.2399,0.2399,0.2441,0.2399,0,0,0,0,0,0,0,0,0,0,0.2338,0.2327,0.23,0.2301,0.2334,0.2399,0.2399,0.2397,0.2401,0.2403,0,0.242,0,0.2441,0.2445,0.2445,0,0,0,0.232,0.2324,0.2339,0.2301,0.2334,0.2399,0.2365,0.24,0.2404,0.2409,0.2421,0.2423,0.2442,0.2445,0.2445,0.2518,0.2519,0,0,0.2316,0.2313,0.2336,0.2343,0.236,0.2363,0.2368,0.2403,0.2412,0.2421,0.2424,0.2442,0.2445,0.2446,0.2518,0.2518,0,0,0,0.2315,0.231,0.2325,0.234,0.2361,0.2366,0.237,0.241,0.2415,0.2425,0.2443,0.2446,0.2446,0.2517,0.2518,0.2556,0,0,0,0.2312,0.231,0.2324,0.2322,0.2361,0.2395,0.2377,0.2412,0.2417,0.2443,0.2446,0.2447,0.2517,0.2518,0.2554,0.2567,0,0,0,0.2296,0.2309,0.2318,0.2322,0.2357,0.2395,0.2402,0.2413,0.2428,0.2445,0.2447,0.2517,0.2518,0.2552,0.2564,0.263,0,0,0,0.2286,0.229,0.2318,0.2336,0.2356,0.2398,0.2402,0.2431,0.2445,0.2446,0.2517,0.2518,0.2552,0.2562,0.2627,0.261,0.2621,0,0,0.2278,0.229,0.23,0.2326,0.2359,0.2388,0.2439,0.2457,0.2464,0.2499,0.2501,0.2555,0.2564,0.2629,0.2673,0.2682,0,0,0,0.2289,0.2294,0.231,0.2342,0.2382,0.2435,0.2464,0.2491,0.2534,0.2482,0.2567,0.2571,0.2611,0.2596,0.2603,0.2523,0.2523,0.2523,0.2523,0.2245,0.2278,0.2299,0.2348,0.2393,0.2469,0.2518,0.2562,0.256,0.2592,0.2611,0.2697,0.268,0.2686,0.2623,0.2623,0.2623,0.2623,0.2624,0.2219,0.2226,0.2295,0.2326,0.2404,0.2462,0.2575,0.2604,0.2696,0.2663,0.2701,0.2647,0.2696,0.2627,0.2626,0.2626,0.2625,0.2625,0.2625,0.2172,0.2181,0.2215,0.2279,0.236,0.2463,0.2567,0.2656,0.2726,0.2772,0.2777,0.2775,0.2727,0.2802,0.2802,0.2803,0.2803,0.2803,0.2803,0.21,0.2137,0.2154,0.2233,0.228,0.2392,0.2566,0.266,0.2788,0.2822,0.2822,0.2758,0.2752,0.2738,0.2809,0.2808,0.2807,0.2807,0.2806,0.2029,0.2055,0.2074,0.2109,0.2215,0.2267,0.2468,0.2664,0.2792,0.2849,0.2862,0.2858,0.285,0.2843,0.2832,0.2923,0.2923,0.2923,0.2923,0.1972,0.199,0.1999,0.2028,0.2098,0.2202,0.229,0.2464,0.2687,0.2756,0.2762,0.2691,0.2691,0.2669,0.2666,0.2649,0.2693,0.2692,0.2691,0.1925,0.1943,0.1922,0.1961,0.2024,0.2109,0.2122,0.2172,0.2412,0.2675,0.2647,0.2922,0.2834,0.2828,0.2804,0.2795,0.2772,0,0]},{"header":{"parameterUnit":"m.s-1","parameterCategory":2,"la1":30.2992,"la2":30.254,"lo1":-89.0895,"lo2":-89.0443,"dy":0.0025,"dx":0.0025,"nx":19,"ny":19,"refTime":"2026-04-09T03:00:00:Z","depth":"2","parameterNumber":3,"parameterNumberName":"V-component_of_CURRENTS"},"data":[0,0,0,0.0075,0.0073,-0.0015,-0.0015,-0.0117,-0.0118,0,0,0,0,0,0,0,0,0,0,0,0.011,0.011,0.0075,0.0073,-0.0015,-0.0016,-0.0117,-0.0118,0,0,0,0,0,0,0,0,0,0,0,0.011,0.011,0.011,0.0073,-0.0015,-0.0016,-0.0117,-0.0055,0,0,0,0,0,0,0,0,0,0,0.0029,0.0064,0.011,0.011,0.0073,-0.0015,-0.0016,-0.0052,-0.0059,-0.0071,0,-0.0078,0,-0.0099,-0.0124,-0.0124,0,0,0,0.0066,0.007,0.0045,0.011,0.0072,-0.0015,0.0023,-0.0056,-0.0063,-0.008,-0.008,-0.0084,-0.0101,-0.0124,-0.0125,-0.0147,-0.0146,0,0,0.0071,0.0092,0.005,0.0041,0.0057,0.0026,0.002,-0.006,-0.0064,-0.008,-0.0087,-0.0103,-0.0125,-0.0125,-0.0147,-0.0147,0,0,0,0.009,0.0096,0.0072,0.0045,0.0028,0.0023,0.0017,-0.006,-0.0068,-0.0088,-0.0104,-0.0125,-0.0126,-0.0148,-0.0147,-0.0056,0,0,0,0.0092,0.0107,0.0075,0.0086,0.003,-0.0018,0.0019,-0.0062,-0.0072,-0.0103,-0.0125,-0.0127,-0.0148,-0.0147,-0.0059,0.0004,0,0,0,0.0113,0.0109,0.0101,0.0088,0.0052,-0.0018,-0.0031,-0.0065,-0.0082,-0.0124,-0.0127,-0.0148,-0.0147,-0.0062,-0.0003,0.0033,0,0,0,0.0133,0.0136,0.0102,0.0104,0.0053,0.0033,-0.003,-0.0059,-0.0089,-0.0126,-0.0148,-0.0147,-0.0063,-0.0006,0.0029,0.0099,0.0122,0,0,0.0151,0.0139,0.0142,0.0109,0.0116,0.0044,0.005,-0.0022,-0.0079,-0.0123,-0.0124,-0.0058,-0.0003,0.0032,0.0156,0.0177,0,0,0,0.0158,0.0166,0.016,0.0155,0.0124,0.0117,0.0041,0.0009,-0.0035,-0.0092,-0.0064,-0.0032,-0.0012,0.0022,0.0038,-0.0142,-0.0142,-0.0143,-0.0143,0.0218,0.0206,0.0229,0.0218,0.0209,0.0162,0.0147,0.0092,0.002,0.0018,0.0038,0.0124,0.0161,0.0175,0.0018,0.0019,0.0019,0.0019,0.0019,0.0277,0.0299,0.0297,0.0312,0.0303,0.0303,0.025,0.0203,0.0184,0.0115,0.0128,0.0111,0.0199,0.0026,0.0025,0.0024,0.0023,0.0023,0.0022,0.0327,0.0339,0.0345,0.0388,0.042,0.0393,0.0446,0.0374,0.0282,0.0301,0.0306,0.0305,0.0186,0.0297,0.0297,0.0298,0.0298,0.0298,0.0299,0.0374,0.0386,0.0432,0.0469,0.0512,0.0565,0.0555,0.0554,0.05,0.043,0.0429,0.0217,0.0208,0.0201,0.0306,0.0304,0.0303,0.0303,0.0302,0.0432,0.0437,0.0516,0.0564,0.0675,0.0796,0.077,0.0787,0.074,0.0731,0.0488,0.0481,0.0458,0.0444,0.0442,0.0603,0.0603,0.0603,0.0603,0.0476,0.0482,0.0599,0.0698,0.0826,0.0905,0.1052,0.1011,0.085,0.0723,0.0717,0.067,0.0656,0.0639,0.062,0.0619,0.0826,0.0827,0.0827,0.0525,0.0556,0.065,0.0743,0.0891,0.1043,0.1192,0.1166,0.0922,0.0832,0.0723,0.0624,0.0536,0.0521,0.0475,0.0453,0.0442,0,0]}],[{"header":{"parameterUnit":"m.s-1","parameterCategory":2,"la1":30.2992,"la2":30.254,"lo1":-89.0895,"lo2":-89.0443,"dy":0.0025,"dx":0.0025,"nx":19,"ny":19,"refTime":"2026-04-09T03:00:00:Z","depth":"4","parameterNumber":2,"parameterNumberName":"U-component_of_CURRENTS"},"data":[0,0,0,0.1579,0.1584,0.1795,0.1796,0.1931,0.1932,0,0,0,0,0,0,0,0,0,0,0,0.1509,0.1511,0.1578,0.1584,0.1795,0.1796,0.1931,0.1932,0,0,0,0,0,0,0,0,0,0,0,0.1508,0.1511,0.1513,0.1585,0.1795,0.1796,0.1931,0.1802,0,0,0,0,0,0,0,0,0,0,0.1613,0.157,0.151,0.1513,0.1586,0.1794,0.1796,0.1798,0.181,0.18,0,0.1854,0,0.1898,0.1939,0.1939,0,0,0,0.1574,0.156,0.1621,0.1513,0.1588,0.1794,0.1697,0.1806,0.182,0.1817,0.1857,0.1863,0.19,0.194,0.194,0.2061,0.2062,0,0,0.1562,0.1537,0.1612,0.1631,0.1669,0.169,0.1703,0.1816,0.1835,0.1857,0.1867,0.1903,0.194,0.1941,0.2061,0.2061,0,0,0,0.1536,0.1529,0.159,0.1624,0.1675,0.1696,0.1712,0.183,0.1854,0.1869,0.1904,0.1941,0.1942,0.206,0.2061,0.2102,0,0,0,0.1528,0.1515,0.1585,0.1571,0.1674,0.1774,0.1724,0.1846,0.186,0.1903,0.1941,0.1943,0.2059,0.206,0.2099,0.211,0,0,0,0.1495,0.1511,0.1544,0.1569,0.1666,0.1774,0.1803,0.185,0.1881,0.1939,0.1944,0.2059,0.206,0.2097,0.2106,0.216,0,0,0,0.1447,0.1507,0.1544,0.1619,0.1664,0.1778,0.1803,0.1893,0.1946,0.1942,0.2059,0.2061,0.2096,0.2104,0.2157,0.1903,0,0,0,0.1487,0.1512,0.1552,0.159,0.1688,0.1747,0.1851,0.1932,0.1958,0.2009,0.2014,0.21,0.2106,0.2159,0.1982,0,0,0,0,0.154,0.157,0.1607,0.1679,0.1762,0.1846,0.193,0.1972,0.2059,0.2001,0.2115,0.2118,0.215,0.1995,0.2067,0.2067,0.2067,0.2067,0.2066,0.154,0.1587,0.1651,0.1726,0.1803,0.1922,0.1995,0.2067,0.2087,0.2136,0.2162,0.2244,0.2082,0.2179,0.2179,0.2179,0.2179,0.218,0.218,0.1564,0.1589,0.167,0.1751,0.1846,0.1944,0.2073,0.212,0.223,0.2215,0.2245,0.2061,0.2184,0.2183,0.2183,0.2182,0.2182,0.2181,0.2181,0.1525,0.1543,0.1614,0.1725,0.1843,0.1969,0.2076,0.2184,0.2264,0.2311,0.2167,0.2282,0.2267,0.2343,0.2343,0.2344,0.2344,0.2344,0.2344,0.1445,0.1514,0.157,0.1696,0.1773,0.1903,0.209,0.2162,0.2275,0.2187,0.2337,0.23,0.2294,0.2277,0.2349,0.2348,0.2347,0.2347,0.2347,0.1381,0.1426,0.1489,0.156,0.1709,0.1776,0.1984,0.2065,0.2129,0.2115,0.2123,0.2133,0.2097,0.2097,0.2071,0.2085,0.2082,0.2079,0,0.132,0.135,0.1417,0.148,0.1548,0.1689,0.1716,0.1833,0.1938,0.1869,0.2134,0.214,0.2145,0.2102,0.2098,0.2063,0,0,0,0.1274,0.1306,0.132,0.14,0.1458,0.1552,0.1711,0.1691,0.1916,0.1908,0.2004,0.2024,0.2229,0.2363,0.2333,0.2326,0.2297,0,0]},{"header":{"parameterUnit":"m.s-1","parameterCategory":2,"la1":30.2992,"la2":30.254,"lo1":-89.0895,"lo2":-89.0443,"dy":0.0025,"dx":0.0025,"nx":19,"ny":19,"refTime":"2026-04-09T03:00:00:Z","depth":"4","parameterNumber":3,"parameterNumberName":"V-component_of_CURRENTS"},"data":[0,0,0,0.0132,0.013,0.0048,0.0048,-0.0045,-0.0046,0,0,0,0,0,0,0,0,0,0,0,0.0163,0.0163,0.0132,0.013,0.0048,0.0048,-0.0045,-0.0046,0,0,0,0,0,0,0,0,0,0,0,0.0164,0.0163,0.0163,0.013,0.0049,0.0048,-0.0045,0.0012,0,0,0,0,0,0,0,0,0,0,0.0089,0.0123,0.0163,0.0163,0.0129,0.0049,0.0048,0.0015,0.0009,-0.0003,0,-0.0011,0,-0.0029,-0.0051,-0.0052,0,0,0,0.0123,0.0128,0.0103,0.0163,0.0129,0.0049,0.0083,0.0011,0.0004,-0.0011,-0.0012,-0.0016,-0.0031,-0.0052,-0.0052,-0.0082,-0.0082,0,0,0.0128,0.0149,0.0108,0.0099,0.0114,0.0086,0.0081,0.0007,0.0005,-0.0013,-0.0018,-0.0033,-0.0053,-0.0053,-0.0082,-0.0082,0,0,0,0.0145,0.0153,0.0129,0.0103,0.0088,0.0084,0.0078,0.0008,-0.0001,-0.002,-0.0034,-0.0053,-0.0054,-0.0082,-0.0082,-0.0011,0,0,0,0.0148,0.0163,0.0131,0.0143,0.009,0.0046,0.0081,0.0005,-0.0005,-0.0033,-0.0053,-0.0055,-0.0083,-0.0082,-0.0014,0.0037,0,0,0,0.0166,0.0165,0.0157,0.0144,0.0111,0.0047,0.0034,0.0002,-0.0013,-0.0052,-0.0055,-0.0083,-0.0082,-0.0016,0.0033,0.0056,0,0,0,0.0188,0.0179,0.0157,0.0148,0.0112,0.0084,0.0034,0.0004,-0.0025,-0.0053,-0.0083,-0.0082,-0.0017,0.003,0.0053,0.0091,0,0,0,0.0188,0.018,0.0175,0.0154,0.0148,0.0094,0.0089,0.0028,-0.0018,-0.006,-0.0061,-0.0013,0.0032,0.0055,0.0129,0,0,0,0,0.0183,0.0186,0.0179,0.0172,0.0143,0.0138,0.0074,0.0048,0.0009,-0.0032,-0.0019,0.0007,0.0019,0.0032,-0.0079,-0.0079,-0.0079,-0.0079,-0.0079,0.0213,0.0205,0.0217,0.0209,0.0199,0.0163,0.015,0.0104,0.0048,0.0045,0.006,0.0122,0.0138,0.0041,0.0042,0.0042,0.0042,0.0042,0.0042,0.0241,0.0255,0.0263,0.027,0.0269,0.0267,0.0225,0.0188,0.017,0.0118,0.0125,0.01,0.0049,0.0048,0.0047,0.0046,0.0046,0.0045,0.0045,0.027,0.0279,0.0289,0.0325,0.0355,0.0338,0.0379,0.0323,0.0247,0.026,0.025,0.0171,0.0171,0.0254,0.0254,0.0254,0.0255,0.0255,0.0255,0.0295,0.0309,0.0349,0.0384,0.0425,0.047,0.0467,0.0458,0.0381,0.0351,0.0283,0.0193,0.0186,0.0182,0.026,0.026,0.0259,0.0258,0.0258,0.0322,0.0336,0.0401,0.0446,0.0544,0.0584,0.0585,0.0557,0.0547,0.0503,0.0384,0.0376,0.0355,0.0344,0.0344,0.0474,0.0475,0.0475,0,0.0347,0.0356,0.0454,0.054,0.0633,0.0653,0.0684,0.0661,0.0557,0.0548,0.0519,0.0385,0.0379,0.0353,0.0344,0.0346,0,0,0,0.0375,0.0403,0.0478,0.0562,0.0669,0.0692,0.0695,0.0678,0.0575,0.0573,0.0496,0.049,0.0383,0.0276,0.0224,0.0216,0.0207,0,0]}]]